This is the latest recevied weather packets stored in our database for station/object W4KUS-10. If no packets are shown the sender has not sent any weather packets the latest 10 day(s).
| Time | Temp. | Humidity | Pressure | Rain* | Wind** | Luminosity | Snow |
|---|---|---|---|---|---|---|---|
| 1777909241 | 24.44° C | 50% | 1017.5 hPa | 0 mm | - | - | - |
| 1777908941 | 25° C | 47% | 1017.4 hPa | 0 mm | - | - | - |
| 1777908641 | 24.44° C | 48% | 1017.4 hPa | 0 mm | - | - | - |
| 1777908341 | 24.44° C | 48% | 1017.3 hPa | 0 mm | - | - | - |
| 1777908041 | 23.89° C | 48% | 1017.2 hPa | 0 mm | - | - | - |
| 1777907741 | 23.89° C | 49% | 1017.2 hPa | 0 mm | - | - | - |
| 1777907441 | 23.33° C | 49% | 1017.2 hPa | 0 mm | - | - | - |
| 1777907141 | 23.33° C | 47% | 1017.1 hPa | 0 mm | - | - | - |
| 1777906841 | 23.89° C | 48% | 1017.1 hPa | 0 mm | - | - | - |
| 1777906541 | 23.33° C | 49% | 1017 hPa | 0 mm | - | - | - |
| 1777906241 | 23.33° C | 50% | 1017 hPa | 0 mm | - | - | - |
| 1777905941 | 23.33° C | 49% | 1017 hPa | 0 mm | - | - | - |
| 1777905641 | 23.33° C | 49% | 1017 hPa | 0 mm | - | - | - |
| 1777905341 | 23.33° C | 49% | 1017 hPa | 0 mm | - | - | - |
| 1777905041 | 23.33° C | 51% | 1017.1 hPa | 0 mm | - | - | - |
| 1777904741 | 22.78° C | 52% | 1017.1 hPa | 0 mm | - | - | - |
| 1777904441 | 22.78° C | 51% | 1017 hPa | 0 mm | - | - | - |
| 1777904141 | 22.78° C | 50% | 1017.1 hPa | 0 mm | - | - | - |
| 1777903841 | 22.78° C | 51% | 1017.1 hPa | 0 mm | - | - | - |
| 1777903541 | 22.78° C | 53% | 1017.1 hPa | 0 mm | - | - | - |
| 1777903241 | 22.22° C | 54% | 1017.1 hPa | 0 mm | - | - | - |
| 1777902941 | 22.22° C | 54% | 1017.1 hPa | 0 mm | - | - | - |
| 1777902641 | 22.22° C | 54% | 1017.2 hPa | 0 mm | - | - | - |
| 1777902341 | 21.67° C | 56% | 1017.3 hPa | 0 mm | - | - | - |
| 1777902041 | 21.67° C | 57% | 1017.3 hPa | 0 mm | - | - | - |
* Rain latest hour (hover to see other rain measurements)
** Current wind speed in m/s (hover to see current wind gust speed)